When you browse on this site, cookies collect data to enhance your experience and personalize the content and advertising you see.
Visit our Privacy Policy to learn more. By continuing to use the site, you agree to this use of cookies and data.
  • In Czech Republic
  • List of Countries
  • For 7 days
  • Water Temperature
  • Weather Map
  • Weather Widgets
  • user-avatar
    Login

    Hourly Weather Yoro

    Today, 21 October, Monday

    Time Temperature Precipitation Wind Pressure Humidity
    00:00 +22°C° 0.1 mm 1 mps 698 mmHg 91%
    01:00 +22°C° 0 mm 1 mps 698 mmHg 92%
    02:00 +22°C° 0 mm 1 mps 698 mmHg 92%
    03:00 +22°C° 0 mm 1 mps 697 mmHg 93%
    04:00 +22°C° 0 mm 1 mps 698 mmHg 93%
    05:00 +21°C° 0 mm 1 mps 698 mmHg 94%
    06:00 +21°C° 0 mm 1 mps 698 mmHg 94%
    07:00 +24°C° 0 mm 1 mps 699 mmHg 85%
    08:00 +26°C° 0 mm 1 mps 699 mmHg 75%
    09:00 +29°C° 0 mm 1 mps 700 mmHg 66%
    10:00 +30°C° 0.4 mm 1 mps 700 mmHg 62%
    11:00 +31°C° 0.4 mm 1 mps 700 mmHg 59%
    12:00 +31°C° 0.4 mm 1 mps 699 mmHg 55%
    13:00 +31°C° 0.4 mm 1 mps 699 mmHg 58%
    14:00 +29°C° 0.4 mm 0 mps 698 mmHg 61%
    15:00 +28°C° 0.4 mm 0 mps 697 mmHg 64%
    16:00 +26°C° 0.5 mm 0 mps 698 mmHg 72%
    17:00 +24°C° 0.5 mm 0 mps 698 mmHg 80%
    18:00 +22°C° 0.5 mm 0 mps 698 mmHg 89%
    19:00 +24°C° 0.2 mm 1 mps 698 mmHg 89%
    20:00 +23°C° 0.2 mm 1 mps 699 mmHg 90%
    21:00 +23°C° 0.2 mm 1 mps 699 mmHg 91%
    22:00 +23°C° 0.1 mm 1 mps 699 mmHg 92%
    23:00 +22°C° 0.1 mm 1 mps 699 mmHg 92%

    Tomorrow, 22 October, Tuesday

    Time Temperature Precipitation Wind Pressure Humidity
    00:00 +22°C° 0.1 mm 1 mps 699 mmHg 93%
    01:00 +22°C° 0 mm 1 mps 699 mmHg 93%
    02:00 +22°C° 0 mm 1 mps 698 mmHg 93%
    03:00 +22°C° 0 mm 1 mps 698 mmHg 93%
    04:00 +22°C° 0 mm 1 mps 698 mmHg 92%
    05:00 +20°C° 0 mm 0 mps 698 mmHg 92%
    06:00 +20°C° 0 mm 0 mps 698 mmHg 92%
    07:00 +22°C° 0 mm 0 mps 699 mmHg 83%
    08:00 +27°C° 0 mm 1 mps 700 mmHg 74%
    09:00 +29°C° 0 mm 1 mps 700 mmHg 65%
    10:00 +30°C° 0.2 mm 1 mps 700 mmHg 63%
    11:00 +30°C° 0.2 mm 1 mps 699 mmHg 61%
    12:00 +31°C° 0.2 mm 1 mps 699 mmHg 59%
    13:00 +30°C° 1.9 mm 1 mps 698 mmHg 66%
    14:00 +29°C° 1.9 mm 1 mps 697 mmHg 73%
    15:00 +28°C° 1.9 mm 1 mps 697 mmHg 80%
    16:00 +27°C° 1.2 mm 1 mps 697 mmHg 83%
    17:00 +24°C° 1.2 mm 0 mps 697 mmHg 87%
    18:00 +22°C° 1.2 mm 0 mps 697 mmHg 90%
    19:00 +24°C° 0.1 mm 1 mps 698 mmHg 91%
    20:00 +24°C° 0.1 mm 1 mps 698 mmHg 91%
    21:00 +23°C° 0.1 mm 1 mps 699 mmHg 92%
    22:00 +23°C° 0 mm 1 mps 698 mmHg 92%
    23:00 +21°C° 0 mm 0 mps 698 mmHg 92%

    Day after tomorrow, 23 October, Wednesday

    Time Temperature Precipitation Wind Pressure Humidity
    00:00 +21°C° 0 mm 0 mps 698 mmHg 92%
    01:00 +21°C° 0 mm 0 mps 698 mmHg 92%
    02:00 +20°C° 0 mm 0 mps 697 mmHg 92%
    03:00 +20°C° 0 mm 0 mps 697 mmHg 92%
    04:00 +20°C° 0 mm 0 mps 697 mmHg 93%
    05:00 +20°C° 0 mm 0 mps 697 mmHg 93%
    06:00 +20°C° 0 mm 0 mps 698 mmHg 93%
    07:00 +22°C° 0.2 mm 0 mps 699 mmHg 86%
    08:00 +24°C° 0.2 mm 0 mps 699 mmHg 79%
    09:00 +26°C° 0.2 mm 0 mps 700 mmHg 72%
    10:00 +26°C° 1 mm 0 mps 699 mmHg 73%
    11:00 +28°C° 1 mm 1 mps 699 mmHg 74%
    12:00 +28°C° 1 mm 1 mps 698 mmHg 75%
    13:00 +28°C° 1.4 mm 1 mps 698 mmHg 78%
    14:00 +28°C° 1.4 mm 1 mps 697 mmHg 81%
    15:00 +27°C° 1.4 mm 1 mps 697 mmHg 84%
    16:00 +26°C° 0.7 mm 1 mps 697 mmHg 88%
    17:00 +25°C° 0.7 mm 1 mps 697 mmHg 91%
    18:00 +22°C° 0.7 mm 0 mps 697 mmHg 94%
    19:00 +21°C° 0.2 mm 0 mps 697 mmHg 95%
    20:00 +23°C° 0.2 mm 1 mps 698 mmHg 95%
    21:00 +23°C° 0.2 mm 1 mps 698 mmHg 95%
    22:00 +22°C° 0 mm 1 mps 698 mmHg 95%
    23:00 +22°C° 0 mm 1 mps 698 mmHg 95%

    24 October, Thursday

    Time Temperature Precipitation Wind Pressure Humidity
    00:00 +22°C° 0 mm 1 mps 697 mmHg 95%
    01:00 +22°C° 0 mm 1 mps 697 mmHg 95%
    02:00 +21°C° 0 mm 1 mps 697 mmHg 95%
    03:00 +21°C° 0 mm 1 mps 697 mmHg 95%
    04:00 +21°C° 0 mm 1 mps 697 mmHg 95%
    05:00 +21°C° 0 mm 1 mps 697 mmHg 95%
    06:00 +19°C° 0 mm 0 mps 697 mmHg 95%
    07:00 +21°C° 0 mm 0 mps 698 mmHg 86%
    08:00 +23°C° 0 mm 0 mps 699 mmHg 78%
    09:00 +26°C° 0 mm 0 mps 700 mmHg 70%
    10:00 +27°C° 0 mm 0 mps 699 mmHg 64%
    11:00 +30°C° 0 mm 1 mps 699 mmHg 59%
    12:00 +31°C° 0 mm 1 mps 698 mmHg 54%
    13:00 +30°C° 0.4 mm 1 mps 697 mmHg 59%
    14:00 +28°C° 0.4 mm 0 mps 697 mmHg 64%
    15:00 +27°C° 0.4 mm 0 mps 696 mmHg 68%
    16:00 +25°C° 0.5 mm 0 mps 696 mmHg 76%
    17:00 +25°C° 0.5 mm 1 mps 696 mmHg 84%
    18:00 +23°C° 0.5 mm 1 mps 696 mmHg 92%
    19:00 +23°C° 0.3 mm 1 mps 697 mmHg 92%
    20:00 +23°C° 0.3 mm 1 mps 697 mmHg 93%
    21:00 +22°C° 0.3 mm 1 mps 698 mmHg 94%
    22:00 +22°C° 0 mm 1 mps 698 mmHg 94%
    23:00 +21°C° 0 mm 1 mps 697 mmHg 94%

    25 October, Friday

    Time Temperature Precipitation Wind Pressure Humidity
    00:00 +21°C° 0 mm 1 mps 697 mmHg 94%
    01:00 +21°C° 0 mm 1 mps 697 mmHg 94%
    02:00 +21°C° 0 mm 1 mps 697 mmHg 94%
    03:00 +21°C° 0 mm 1 mps 696 mmHg 94%
    04:00 +20°C° 0 mm 1 mps 697 mmHg 94%
    05:00 +20°C° 0 mm 1 mps 697 mmHg 93%
    06:00 +20°C° 0 mm 1 mps 697 mmHg 93%
    07:00 +23°C° 0 mm 1 mps 698 mmHg 83%
    08:00 +24°C° 0 mm 0 mps 698 mmHg 73%
    09:00 +26°C° 0 mm 0 mps 699 mmHg 63%
    10:00 +27°C° 0 mm 0 mps 699 mmHg 59%
    11:00 +30°C° 0 mm 1 mps 698 mmHg 54%
    12:00 +31°C° 0 mm 1 mps 698 mmHg 50%
    13:00 +31°C° 0.2 mm 1 mps 697 mmHg 53%
    14:00 +31°C° 0.2 mm 1 mps 696 mmHg 55%
    15:00 +30°C° 0.2 mm 1 mps 696 mmHg 58%
    16:00 +28°C° 0.4 mm 1 mps 696 mmHg 68%
    17:00 +26°C° 0.4 mm 1 mps 696 mmHg 78%
    18:00 +22°C° 0.4 mm 0 mps 696 mmHg 88%
    19:00 +21°C° 0.1 mm 0 mps 697 mmHg 88%
    20:00 +21°C° 0.1 mm 0 mps 697 mmHg 89%
    21:00 +20°C° 0.1 mm 0 mps 697 mmHg 89%
    22:00 +20°C° 0.1 mm 0 mps 697 mmHg 89%
    23:00 +20°C° 0.1 mm 0 mps 697 mmHg 89%

    26 October, Saturday

    Time Temperature Precipitation Wind Pressure Humidity
    00:00 +19°C° 0.1 mm 0 mps 697 mmHg 89%
    01:00 +19°C° 0 mm 0 mps 697 mmHg 89%
    02:00 +19°C° 0 mm 0 mps 697 mmHg 89%
    03:00 +19°C° 0 mm 0 mps 696 mmHg 90%
    04:00 +19°C° 0 mm 0 mps 697 mmHg 90%
    05:00 +19°C° 0 mm 0 mps 697 mmHg 90%
    06:00 +19°C° 0 mm 0 mps 697 mmHg 90%
    07:00 +21°C° 0 mm 0 mps 698 mmHg 82%
    08:00 +24°C° 0 mm 0 mps 698 mmHg 74%
    09:00 +26°C° 0 mm 0 mps 699 mmHg 67%
    10:00 +26°C° 0.2 mm 0 mps 699 mmHg 67%
    11:00 +29°C° 0.2 mm 1 mps 698 mmHg 67%
    12:00 +29°C° 0.2 mm 1 mps 698 mmHg 67%
    13:00 +29°C° 1.5 mm 1 mps 697 mmHg 73%
    14:00 +28°C° 1.5 mm 1 mps 697 mmHg 78%
    15:00 +27°C° 1.5 mm 1 mps 696 mmHg 84%
    16:00 +26°C° 1.9 mm 1 mps 697 mmHg 88%
    17:00 +25°C° 1.9 mm 1 mps 697 mmHg 91%
    18:00 +23°C° 1.9 mm 1 mps 698 mmHg 95%
    19:00 +23°C° 0.6 mm 1 mps 698 mmHg 95%
    20:00 +22°C° 0.6 mm 1 mps 698 mmHg 96%
    21:00 +22°C° 0.6 mm 1 mps 699 mmHg 96%
    22:00 +21°C° 0 mm 1 mps 699 mmHg 96%
    23:00 +21°C° 0 mm 1 mps 699 mmHg 96%

    27 October, Sunday

    Time Temperature Precipitation Wind Pressure Humidity
    00:00 +21°C° 0 mm 1 mps 699 mmHg 97%
    01:00 +21°C° 0 mm 1 mps 699 mmHg 97%
    02:00 +21°C° 0 mm 1 mps 698 mmHg 98%
    03:00 +21°C° 0 mm 1 mps 698 mmHg 98%
    04:00 +21°C° 0 mm 1 mps 698 mmHg 98%
    05:00 +21°C° 0 mm 1 mps 699 mmHg 98%
    06:00 +21°C° 0 mm 1 mps 699 mmHg 98%
    07:00 +22°C° 0 mm 1 mps 699 mmHg 95%
    08:00 +23°C° 0 mm 1 mps 700 mmHg 91%
    09:00 +24°C° 0 mm 1 mps 700 mmHg 88%
    10:00 +25°C° 0.1 mm 1 mps 700 mmHg 82%
    11:00 +27°C° 0.1 mm 1 mps 700 mmHg 77%
    12:00 +28°C° 0.1 mm 2 mps 700 mmHg 71%
    13:00 +27°C° 0.7 mm 2 mps 699 mmHg 76%
    14:00 +26°C° 0.7 mm 2 mps 698 mmHg 82%
    15:00 +26°C° 0.7 mm 2 mps 698 mmHg 87%
    16:00 +25°C° 0.3 mm 1 mps 698 mmHg 90%
    17:00 +23°C° 0.3 mm 1 mps 698 mmHg 94%
    18:00 +22°C° 0.3 mm 1 mps 698 mmHg 97%
    19:00 +22°C° 0 mm 1 mps 699 mmHg 97%
    20:00 +22°C° 0 mm 1 mps 699 mmHg 98%
    21:00 +21°C° 0 mm 1 mps 700 mmHg 98%
    22:00 +21°C° 0 mm 1 mps 700 mmHg 98%
    23:00 +19°C° 0 mm 0 mps 699 mmHg 98%
    Show more